Weather History for Jefferson City, MO

Change the Weather History Date:

Monday, December 10, 2012

  Actual Average Record
Temperature  
Mean Temperature 26 °F -  
Max Temperature 30 °F 45 °F 71 °F (1996)
Min Temperature 19 °F 24 °F -1 °F (1919)
Degree Days  
Heating Degree Days 40    
Moisture  
Dew Point 16 °F    
Average Humidity 66    
Maximum Humidity 81    
Minimum Humidity 59    
Precipitation  
Precipitation 0.00 in - - ()
Sea Level Pressure  
Sea Level Pressure 30.02 in    
Wind  
Wind Speed 10 mph (WNW)    
Max Wind Speed 15 mph    
Max Gust Speed 21 mph    
Visibility 10 miles    
Events      
Averages and records for this station are not official NWS values.
T = Trace of Precipitation, MM = Missing Value Source: NWS Daily Summary

Daily Weather History Graph

Daily Weather History Graph

Search for Another Location

Airport:

Trip Planner

Search our weather history database for the weather conditions in past years. The results will help you decide how hot, cold, wet, or windy it might be!

Date:

Astronomy

Dec. 10, 2012 Rise Set
Actual Time 7:15 AM CST 4:47 PM CST
Civil Twilight 6:46 AM CST 5:17 PM CST
Nautical Twilight 6:12 AM CST 5:50 PM CST
Astronomical Twilight 5:40 AM CST 6:22 PM CST
Moon 4:01 AM CST (12/10) 2:36 PM CST (12/10)
Length of Visible Light 10h 31m
Length of Day
9h 31m
Waning Crescent, 10% of the Moon is Illuminated
Dec 10
Waning Crescent
Dec 13
New
Dec 19
First Quarter
Dec 28
Full
Jan 4
Last Quarter

Hourly Weather History & Observations

Time (CST) Temp. Windchill Dew Point Humidity Pressure Visibility Wind Dir Wind Speed Gust Speed Precip Events Conditions
12:53 AM 27.0 °F 16.7 °F 17.1 °F 66% 29.98 in 10.0 mi WNW 11.5 mph 19.6 mph N/A   Overcast
1:53 AM 25.0 °F 12.6 °F 15.1 °F 66% 29.99 in 10.0 mi WNW 15.0 mph 20.7 mph N/A   Overcast
2:53 AM 24.1 °F 12.0 °F 14.0 °F 65% 29.99 in 10.0 mi WNW 13.8 mph 20.7 mph N/A   Overcast
3:53 AM 23.0 °F 10.1 °F 12.9 °F 65% 29.98 in 10.0 mi WNW 15.0 mph - N/A   Overcast
4:53 AM 23.0 °F 11.1 °F 12.9 °F 65% 29.97 in 10.0 mi WNW 12.7 mph 20.7 mph N/A   Overcast
5:53 AM 24.1 °F 12.0 °F 14.0 °F 65% 29.99 in 10.0 mi WNW 13.8 mph 19.6 mph N/A   Overcast
7:53 AM 24.1 °F 11.5 °F 14.0 °F 65% 30.02 in 10.0 mi WNW 15.0 mph 19.6 mph N/A   Overcast
8:51 AM 24.8 °F 15.3 °F 14.0 °F 64% 30.04 in 10.0 mi WNW 9.2 mph 19.6 mph N/A   Overcast
8:53 AM 24.1 °F 13.7 °F 14.0 °F 65% 30.03 in 10.0 mi West 10.4 mph 19.6 mph N/A   Overcast
9:53 AM 25.0 °F 14.2 °F 14.0 °F 63% 30.04 in 10.0 mi WNW 11.5 mph - N/A   Overcast
10:53 AM 26.1 °F 16.8 °F 14.0 °F 60% 30.04 in 10.0 mi WNW 9.2 mph - N/A   Overcast
11:53 AM 27.0 °F 16.7 °F 16.0 °F 63% 30.01 in 10.0 mi WNW 11.5 mph - N/A   Overcast
12:53 PM 28.0 °F 19.3 °F 16.0 °F 61% 30.01 in 10.0 mi WNW 9.2 mph - N/A   Overcast
1:53 PM 30.0 °F 21.7 °F 17.1 °F 59% 30.00 in 10.0 mi WNW 9.2 mph - N/A   Overcast
2:53 PM 30.9 °F 23.5 °F 18.0 °F 59% 30.00 in 10.0 mi WNW 8.1 mph - N/A   Overcast
3:53 PM 30.0 °F 22.4 °F 18.0 °F 61% 30.02 in 10.0 mi NW 8.1 mph - N/A   Overcast
4:53 PM 28.9 °F 22.8 °F 18.0 °F 64% 30.03 in 10.0 mi West 5.8 mph - N/A   Mostly Cloudy
5:08 PM 28.4 °F 21.2 °F 17.6 °F 64% 30.03 in 10.0 mi West 6.9 mph - N/A   Scattered Clouds
5:53 PM 27.0 °F 21.6 °F 17.1 °F 66% 30.03 in 10.0 mi West 4.6 mph - N/A   Clear
6:53 PM 27.0 °F - 18.0 °F 69% 30.05 in 10.0 mi Calm Calm - N/A   Clear
7:53 PM 25.0 °F - 18.0 °F 75% 30.05 in 10.0 mi Calm Calm - N/A   Clear
8:53 PM 23.0 °F - 18.0 °F 81% 30.06 in 10.0 mi Calm Calm - N/A   Clear
9:53 PM 21.0 °F - 15.1 °F 78% 30.06 in 7.0 mi Calm Calm - N/A   Clear
11:53 PM 19.0 °F - 14.0 °F 81% 30.09 in 10.0 mi Calm Calm - N/A   Clear